Time,TemperatureF,DewpointF,PressureIn,WindDirection,WindDirectionDegrees,WindSpeedMPH,WindSpeedGustMPH,Humidity,HourlyPrecipIn,Conditions,Clouds,dailyrainin,SoftwareType,DateUTC
2013-04-01 00:02:00,47.0,40.0,-100.00,NW,306,6.0,10.0,78,0.00,,,0.22,,2013-04-01 04:02:00,
2013-04-01 00:03:00,47.0,42.0,-100.00,WNW,298,4.0,6.0,80,0.00,,,0.22,,2013-04-01 04:03:00,
2013-04-01 00:14:00,47.0,42.0,-100.00,WNW,298,4.0,6.0,80,0.00,,,0.22,,2013-04-01 04:14:00,
2013-04-01 00:24:00,47.0,41.0,-100.00,West,275,2.0,4.0,79,0.00,,,0.22,,2013-04-01 04:24:00,
2013-04-01 00:33:00,47.0,41.0,-100.00,West,275,2.0,4.0,79,0.00,,,0.22,,2013-04-01 04:33:00,
2013-04-01 00:43:00,47.0,40.0,-100.00,NW,306,6.0,10.0,78,0.00,,,0.22,,2013-04-01 04:43:00,
2013-04-01 00:53:00,47.0,40.0,-100.00,NW,306,6.0,10.0,78,0.00,,,0.22,,2013-04-01 04:53:00,
2013-04-01 01:22:00,45.0,38.0,-100.00,WNW,296,4.0,7.0,75,0.00,,,0.22,,2013-04-01 05:22:00,
2013-04-01 01:23:00,46.0,41.0,-100.00,NW,304,7.0,8.0,83,0.00,,,0.22,,2013-04-01 05:23:00,
2013-04-01 01:33:00,46.0,41.0,-100.00,NW,304,7.0,8.0,83,0.00,,,0.22,,2013-04-01 05:33:00,
2013-04-01 01:43:00,46.0,40.0,-100.00,WNW,301,8.0,12.0,79,0.00,,,0.22,,2013-04-01 05:43:00,
2013-04-01 01:53:00,46.0,40.0,-100.00,WNW,301,8.0,12.0,79,0.00,,,0.22,,2013-04-01 05:53:00,
2013-04-01 02:02:00,45.0,38.0,-100.00,WNW,296,4.0,7.0,75,0.00,,,0.22,,2013-04-01 06:02:00,
2013-04-01 02:13:00,45.0,38.0,-100.00,WNW,296,4.0,7.0,75,0.00,,,0.22,,2013-04-01 06:13:00,
2013-04-01 03:02:00,44.0,34.0,-100.00,WNW,301,9.0,12.0,66,0.00,,,0.22,,2013-04-01 07:02:00,
2013-04-01 03:43:00,44.0,34.0,-100.00,WNW,301,9.0,12.0,66,0.00,,,0.22,,2013-04-01 07:43:00,
2013-04-01 03:53:00,44.0,34.0,-100.00,WNW,301,9.0,12.0,66,0.00,,,0.22,,2013-04-01 07:53:00,
2013-04-01 04:42:00,42.0,33.0,-100.00,NW,304,6.0,9.0,70,0.00,,,0.22,,2013-04-01 08:42:00,
2013-04-01 05:03:00,44.0,33.0,-100.00,NW,306,7.0,10.0,65,0.00,,,0.22,,2013-04-01 09:03:00,
2013-04-01 05:12:00,44.0,33.0,-100.00,NW,306,7.0,10.0,65,0.00,,,0.22,,2013-04-01 09:12:00,
2013-04-01 05:22:00,45.0,33.0,-100.00,West,280,4.0,9.0,63,0.00,,,0.22,,2013-04-01 09:22:00,
2013-04-01 05:23:00,42.0,33.0,-100.00,NW,304,6.0,9.0,70,0.00,,,0.22,,2013-04-01 09:23:00,
2013-04-01 05:33:00,42.0,33.0,-100.00,NW,304,6.0,9.0,70,0.00,,,0.22,,2013-04-01 09:33:00,
2013-04-01 06:02:00,45.0,34.0,-100.00,WNW,301,6.0,8.0,65,0.00,,,0.22,,2013-04-01 10:02:00,
2013-04-01 06:03:00,45.0,33.0,-100.00,West,280,4.0,9.0,63,0.00,,,0.22,,2013-04-01 10:03:00,
2013-04-01 06:13:00,45.0,33.0,-100.00,West,280,4.0,9.0,63,0.00,,,0.22,,2013-04-01 10:13:00,
2013-04-01 06:43:00,45.0,34.0,-100.00,WNW,301,6.0,8.0,65,0.00,,,0.22,,2013-04-01 10:43:00,
2013-04-01 06:54:00,45.0,34.0,-100.00,WNW,301,6.0,8.0,65,0.00,,,0.22,,2013-04-01 10:54:00,
2013-04-01 07:02:00,47.0,35.0,-100.00,NW,309,10.0,14.0,61,0.00,,,0.20,,2013-04-01 11:02:00,
2013-04-01 07:23:00,46.0,35.0,-100.00,NW,304,8.0,11.0,64,0.00,,,0.21,,2013-04-01 11:23:00,
2013-04-01 07:33:00,46.0,35.0,-100.00,NW,304,8.0,11.0,64,0.00,,,0.21,,2013-04-01 11:33:00,
2013-04-01 07:43:00,47.0,35.0,-100.00,NW,309,10.0,14.0,61,0.00,,,0.20,,2013-04-01 11:43:00,
2013-04-01 07:53:00,47.0,35.0,-100.00,NW,309,10.0,14.0,61,0.00,,,0.20,,2013-04-01 11:53:00,
2013-04-01 10:23:00,51.0,38.0,-100.00,NW,304,9.0,15.0,59,0.00,,,0.12,,2013-04-01 14:23:00,
2013-04-01 10:33:00,51.0,38.0,-100.00,NW,304,9.0,15.0,59,0.00,,,0.12,,2013-04-01 14:33:00,
2013-04-01 10:42:00,50.0,38.0,-100.00,NW,316,10.0,16.0,62,0.00,,,0.12,,2013-04-01 14:42:00,
2013-04-01 10:53:00,51.0,38.0,-100.00,NW,313,10.0,15.0,61,0.00,,,0.10,,2013-04-01 14:53:00,
2013-04-01 11:02:00,50.0,41.0,-100.00,WNW,301,11.0,16.0,71,0.00,,,0.03,,2013-04-01 15:02:00,
2013-04-01 11:03:00,51.0,38.0,-100.00,NW,313,10.0,15.0,61,0.00,,,0.10,,2013-04-01 15:03:00,
2013-04-01 11:13:00,51.0,38.0,-100.00,NW,313,10.0,15.0,61,0.00,,,0.10,,2013-04-01 15:13:00,
2013-04-01 11:23:00,49.0,40.0,-100.00,WNW,296,13.0,18.0,71,0.00,,,0.10,,2013-04-01 15:23:00,
2013-04-01 11:34:00,49.0,40.0,-100.00,WNW,296,13.0,18.0,71,0.00,,,0.10,,2013-04-01 15:34:00,
2013-04-01 11:43:00,50.0,41.0,-100.00,WNW,301,11.0,16.0,71,0.00,,,0.03,,2013-04-01 15:43:00,
2013-04-01 11:54:00,50.0,41.0,-100.00,WNW,301,11.0,16.0,71,0.00,,,0.03,,2013-04-01 15:54:00,